This demonstration page uses our WeatherBlox Daily Observations layout. Learn more.

Left ArrowRight Arrow

Hourly Observations for February 29, 2016

Temp ( °F °C ) Dew Point ( °F °C ) Humidity (%) Winds ( mph kmh ) Pressure ( in mb ) Visibility ( mi km ) Precip ( " mm )
12:15 am 00:15 Clear 39 4 22 -5.6 50 50 S 8 13 30.03 1017 10 16 N/A
12:35 am 00:35 Clear 39 3.7 23 -5.2 53 53 S 13 20 30.00 1016 10 16 N/A
12:55 am 00:55 Clear 39 4.1 22 -5.3 51 51 S 7 11 30.00 1016 10 16 N/A
1:15 am 01:15 Clear 37 2.6 23 -5.1 57 57 S 7 11 30.00 1016 10 16 N/A
1:35 am 01:35 Clear 38 3.5 23 -5 54 54 S 8 13 30.00 1016 10 16 N/A
1:55 am 01:55 Clear 38 3.1 23 -5 56 56 S 10 17 30.00 1016 10 16 N/A
2:15 am 02:15 Clear 37 2.5 23 -5 58 58 SSW 9 15 30.00 1016 10 16 N/A
2:35 am 02:35 Clear 36 2.1 23 -4.8 61 61 SSW 10 17 29.97 1015 10 16 N/A
2:55 am 02:55 Clear 36 2.3 24 -4.5 61 61 SSW 10 17 29.97 1015 10 16 N/A
3:15 am 03:15 Clear 38 3.2 24 -4.2 59 59 SSW 7 11 29.97 1015 10 16 N/A
3:35 am 03:35 Clear 38 3.1 25 -4.1 60 60 SW 8 13 29.97 1015 10 16 N/A
3:55 am 03:55 Clear 37 3 25 -4 60 60 SW 9 15 29.94 1014 10 16 N/A
4:15 am 04:15 Clear 38 3.1 25 -3.8 61 61 SW 7 11 29.94 1014 10 16 N/A
4:35 am 04:35 Clear 39 4 26 -3.6 58 58 SW 9 15 29.94 1014 10 16 N/A
4:55 am 04:55 Clear 40 4.4 25 -3.7 56 56 SW 8 13 29.94 1014 10 16 N/A
5:15 am 05:15 Clear 40 4.3 25 -3.7 56 56 SW 9 15 29.94 1014 10 16 N/A
5:35 am 05:35 Clear 40 4.5 25 -3.8 55 55 SW 10 17 29.91 1013 10 16 N/A
5:55 am 05:55 Clear 41 5 25 -3.7 54 54 SW 12 19 29.88 1012 10 16 N/A
6:15 am 06:15 Clear 41 5 25 -3.7 54 54 SW 10 17 29.88 1012 10 16 N/A
6:35 am 06:35 Clear 41 5 25 -3.7 54 54 SW 10 17 29.88 1012 10 16 N/A
6:55 am 06:55 Clear 41 5 25 -3.8 53 53 SW 10 17 29.88 1012 10 16 N/A
7:15 am 07:15 Sunny 40 4.5 25 -4 54 54 SW 9 15 29.85 1011 10 16 N/A
7:35 am 07:35 Sunny 40 4.6 25 -4 54 54 SW 10 17 29.85 1011 10 16 N/A
7:55 am 07:55 Sunny 42 5.3 25 -3.8 52 52 SW 14 22 29.85 1011 10 16 N/A
8:15 am 08:15 Sunny 43 6.1 26 -3.5 51 51 SW 13 20 29.85 1011 10 16 N/A
8:35 am 08:35 Sunny 45 7 26 -3.2 49 49 SW 10 17 29.85 1011 10 16 N/A
8:55 am 08:55 Sunny 46 8 27 -3 46 46 SW 10 17 29.83 1010 10 16 N/A
9:15 am 09:15 Sunny 47 8.5 27 -3 45 45 WSW 10 17 29.83 1010 10 16 N/A
9:35 am 09:35 Sunny 48 9 26 -3.2 42 42 WSW 7 11 29.83 1010 10 16 N/A
9:55 am 09:55 Sunny 50 9.8 27 -3 41 41 W 12 19 29.83 1010 10 16 N/A
10:15 am 10:15 Sunny 51 10.7 26 -3.5 37 37 WNW 7 11 29.80 1009 10 16 N/A
10:35 am 10:35 Sunny 54 12 26 -3.5 34 34 NW 8 13 29.80 1009 10 16 N/A
10:55 am 10:55 Sunny 55 13 26 -3.3 32 32 NW 3 6 29.80 1009 10 16 N/A
11:15 am 11:15 Sunny 57 13.8 25 -3.8 30 30 NW 8 13 29.80 1009 10 16 N/A
11:35 am 11:35 Sunny 58 14.2 26 -3.6 29 29 N 7 11 29.74 1007 10 16 N/A
11:55 am 11:55 Sunny 58 14.2 26 -3.6 29 29 N 7 11 29.80 1009 10 16 N/A
12:15 pm 12:15 Sunny 57 14.1 25 -3.8 29 29 NNW 6 9 29.74 1007 10 16 N/A
12:35 pm 12:35 Sunny 58 14.7 25 -3.8 28 28 NW 3 6 29.74 1007 10 16 N/A
12:55 pm 12:55 Sunny 58 14.5 25 -3.7 28 28 NW 5 7 29.74 1007 10 16 N/A
1:15 pm 13:15 Sunny 58 14.5 25 -4 28 28 NW 6 9 29.74 1007 10 16 N/A
1:35 pm 13:35 Sunny 58 14.6 25 -3.7 28 28 NNE 7 11 29.74 1007 10 16 N/A
1:55 pm 13:55 Sunny 58 14.4 26 -3.6 29 29 NNE 9 15 29.74 1007 10 16 N/A
2:15 pm 14:15 Sunny 58 14.4 26 -3.6 29 29 N 7 11 29.74 1007 10 16 N/A
2:35 pm 14:35 Sunny 57 14 26 -3.2 30 30 NNE 8 13 29.74 1007 10 16 N/A
2:55 pm 14:55 Sunny 57 13.7 27 -3 32 32 NNE 13 20 29.74 1007 10 16 N/A
3:15 pm 15:15 Sunny 56 13.1 27 -2.8 33 33 NNE 14 22 29.77 1008 10 16 N/A
3:35 pm 15:35 Sunny 55 12.7 28 -2.5 35 35 NNE 14 22 29.77 1008 10 16 N/A
3:55 pm 15:55 Sunny 54 12.2 27 -2.6 36 36 NNE 13 20 29.77 1008 10 16 N/A
4:15 pm 16:15 Sunny 53 11.8 28 -2.1 38 38 NE 12 19 29.77 1008 10 16 N/A
4:35 pm 16:35 Sunny 52 11 29 -1.9 41 41 NE 14 22 29.77 1008 10 16 N/A
4:55 pm 16:55 Sunny 53 11.5 29 -1.9 40 40 NE 14 22 29.77 1008 10 16 N/A
5:15 pm 17:15 Sunny 52 10.9 29 -1.7 42 42 ENE 16 26 29.77 1008 10 16 N/A
5:35 pm 17:35 Sunny 50 10.1 29 -1.5 45 45 NE 12 19 29.80 1009 10 16 N/A
6:15 pm 18:15 Sunny 47 8.2 30 -1.3 52 52 ENE 12 19 29.80 1009 10 16 N/A
6:35 pm 18:35 Clear 44 6.6 29 -1.4 57 57 ENE 9 15 29.83 1010 10 16 N/A
6:55 pm 18:55 Clear 42 5.7 30 -1.3 61 61 N 18 30 29.91 1013 10 16 N/A
7:15 pm 19:15 Partly Cloudy 41 4.9 29 -1.7 63 63 N 21 33 29.97 1015 10 16 N/A
7:35 pm 19:35 Mostly Cloudy 40 4.7 28 -2 62 62 N 10 17 30.03 1017 10 16 N/A
7:55 pm 19:55 Cloudy with Light Rain 39 3.9 30 -1.3 69 69 NNE 17 28 30.03 1017 10 16 N/A
8:15 pm 20:15 Mostly Cloudy 37 2.8 28 -2.3 69 69 N 18 30 30.03 1017 10 16 N/A
8:35 pm 20:35 Mostly Cloudy 36 2.1 27 -2.7 71 71 N 15 24 30.06 1018 10 16 N/A
8:55 pm 20:55 Mostly Cloudy 35 1.5 25 -3.7 69 69 N 17 28 30.06 1018 10 16 N/A
9:15 pm 21:15 Partly Cloudy 34 1 25 -4.1 69 69 NE 12 19 30.03 1017 10 16 N/A
9:35 pm 21:35 Partly Cloudy 33 0.5 25 -4 72 72 NE 6 9 30.06 1018 10 16 N/A
9:55 pm 21:55 Partly Cloudy 32 0.1 24 -4.6 71 71 N 12 19 30.06 1018 10 16 N/A
10:15 pm 22:15 Clear 32 -0.1 23 -5.1 69 69 N 6 9 30.06 1018 10 16 N/A
10:35 pm 22:35 Clear 31 -0.5 23 -4.8 73 73 NNW 10 17 30.09 1019 10 16 N/A
10:55 pm 22:55 Clear 30 -1 25 -4 80 80 N 13 20 30.12 1020 10 16 N/A
11:15 pm 23:15 Partly Cloudy 29 -1.6 25 -4 84 84 N 9 15 30.15 1021 10 16 N/A
11:35 pm 23:35 Partly Cloudy 28 -2.5 24 -4.6 86 86 N 10 17 30.15 1021 10 16 N/A
11:55 pm 23:55 Clear 26 -3.2 22 -5.7 83 83 N 7 11 30.15 1021 10 16 N/A

Powered by AerisWeather